Location: Pinhead Observatory
(34.4473°N, 118.1985°W)
Time: 07:02:01
(UTC-07:00)

CZ-4C R/B - Visible Passes

Search period start: 21 August 2014 00:00
Search period end: 31 August 2014 00:00
Orbit: 790 x 1213 km, 63.4° (Epoch: 20 August)

Date Brightness Start Highest point End Pass type
(mag) Time Alt. Az. Time Alt. Az. Time Alt. Az.
21 Aug 5.2 00:55:18 10° WNW 00:55:21 10° WNW 00:55:21 10° WNW visible
21 Aug 3.6 21:50:19 10° NNW 21:56:38 35° NE 21:57:33 34° ENE visible
21 Aug 4.0 23:38:34 10° NW 23:42:45 35° WNW 23:42:45 35° WNW visible
22 Aug 4.6 20:36:58 10° N 20:40:50 15° NE 20:44:51 10° ENE visible
22 Aug 2.9 22:23:31 10° NNW 22:30:11 68° NE 22:30:11 68° NE visible
23 Aug 4.9 00:13:26 10° WNW 00:15:23 16° WNW 00:15:23 16° WNW visible
23 Aug 3.9 21:09:18 10° N 21:15:17 29° NE 21:17:41 25° E visible
23 Aug 3.4 22:57:13 10° NW 23:02:52 52° WNW 23:02:52 52° WNW visible
24 Aug 4.7 19:56:22 10° NNE 19:59:20 13° NE 20:02:23 10° ENE visible
24 Aug 2.9 21:42:22 10° NNW 21:49:19 58° NE 21:50:25 53° E visible
24 Aug 4.5 23:31:45 10° NW 23:35:37 24° W 23:35:37 24° W visible
25 Aug 4.0 20:28:19 10° N 20:33:54 25° NE 20:38:02 16° E visible
25 Aug 2.8 22:15:56 10° NW 22:23:02 71° WSW 22:23:14 71° SW visible
26 Aug 3.2 21:01:15 10° NNW 21:08:02 48° NE 21:10:54 33° ESE visible
26 Aug 4.0 22:50:11 10° NW 22:56:07 33° WSW 22:56:07 33° WSW visible
27 Aug 4.2 19:47:23 10° N 19:52:30 21° NE 19:57:51 10° E visible
27 Aug 2.8 21:34:41 10° NNW 21:41:49 85° WSW 21:43:51 53° SSE visible
27 Aug 5.0 23:26:13 10° WNW 23:29:04 14° W 23:29:04 14° W visible
28 Aug 3.4 20:20:09 10° NNW 20:26:43 41° NE 20:31:41 19° ESE visible
28 Aug 3.7 22:08:43 10° NW 22:15:20 41° WSW 22:16:54 37° SW visible
29 Aug 2.8 20:53:28 10° NNW 21:00:35 81° ENE 21:04:49 29° SE visible
29 Aug 4.8 22:44:01 10° WNW 22:48:35 18° WSW 22:50:02 17° WSW visible
30 Aug 3.6 19:39:06 10° NNW 19:45:24 34° NE 19:52:05 10° ESE visible
30 Aug 3.5 21:27:19 10° NW 21:34:10 49° WSW 21:38:03 27° S visible
